Check out our new BloomSky Weather System.

Active alerts

Houston, TX
  Details for Houston, TX Dense Fog Advisory


Thunder radar  blitzortung!


Rain radar more information rain snow radar


Visit our other weather sites:

Template documentation
and downloads

And another site



Weather Underground History page Text

Daily Summary for June 17, 2017 Units:  Metric    English   Both
« Previous Day
Next Day »
Daily Weekly Monthly Yearly Custom
  High: Low: Average:
Temperature: 34.4 °C 25.7 °C 29.6 °C
Dew Point: 25.5 °C 23.9 °C 24.6 °C
Humidity: 93 % 57 % 76 %
Wind Speed: 20.9 km/h 1.6 km/h 7.9 km/h
Wind Gust: 25.7 km/h - -
Wind:- - South
Pressure: 1009.4 hPa 1006 hPa -
Precipitation: 0 mm    
Historical Graphs
 
 
Tabular Data for June 17, 2017
Time Temperature Dew Point Pressure Wind Wind Speed Wind Gust Humidity Rainfall Rate (Hourly)
00:04 27.1 °C 24 °C 1009 hPa South 3.2 km/h 14.5 km/h 83 % 0 mm
00:09 27.1 °C 24.2 °C 1009 hPa SE 6.4 km/h 14.5 km/h 84 % 0 mm
00:14 27 °C 24.1 °C 1009 hPa SW 3.2 km/h 14.5 km/h 84 % 0 mm
00:19 26.9 °C 24 °C 1009 hPa SSW 1.6 km/h 9.7 km/h 84 % 0 mm
00:24 26.8 °C 23.9 °C 1009 hPa South 6.4 km/h 9.7 km/h 84 % 0 mm
00:29 26.8 °C 24.1 °C 1009 hPa SSW 6.4 km/h 9.7 km/h 85 % 0 mm
00:34 26.8 °C 24.1 °C 1009 hPa South 3.2 km/h 9.7 km/h 85 % 0 mm
00:39 26.8 °C 24.1 °C 1008.7 hPa ESE 3.2 km/h 9.7 km/h 85 % 0 mm
00:44 26.7 °C 24.2 °C 1008.7 hPa SSE 1.6 km/h 9.7 km/h 86 % 0 mm
00:49 26.7 °C 24.2 °C 1009 hPa SE 3.2 km/h 9.7 km/h 86 % 0 mm
00:54 26.7 °C 24.4 °C 1009 hPa SSE 1.6 km/h 9.7 km/h 87 % 0 mm
00:59 26.6 °C 24.3 °C 1009 hPa South 3.2 km/h 9.7 km/h 87 % 0 mm
01:04 26.6 °C 24.3 °C 1008.7 hPa SSE 4.8 km/h 8 km/h 87 % 0 mm
01:09 26.6 °C 24.3 °C 1009 hPa South 4.8 km/h 8 km/h 87 % 0 mm
01:14 26.6 °C 24.4 °C 1009 hPa WSW 3.2 km/h 8 km/h 88 % 0 mm
01:19 26.6 °C 24.4 °C 1008.7 hPa SE 4.8 km/h 8 km/h 88 % 0 mm
01:24 26.6 °C 24.4 °C 1008.7 hPa SSW 6.4 km/h 9.7 km/h 88 % 0 mm
01:29 26.6 °C 24.6 °C 1008.7 hPa SSW 4.8 km/h 11.3 km/h 89 % 0 mm
01:34 26.5 °C 24.5 °C 1008.7 hPa SSW 1.6 km/h 11.3 km/h 89 % 0 mm
01:39 26.5 °C 24.5 °C 1008.4 hPa SE 6.4 km/h 11.3 km/h 89 % 0 mm
01:44 26.4 °C 24.4 °C 1008.4 hPa SSW 6.4 km/h 11.3 km/h 89 % 0 mm
01:49 26.4 °C 24.4 °C 1008.4 hPa SE 4.8 km/h 11.3 km/h 89 % 0 mm
01:54 26.4 °C 24.6 °C 1008.4 hPa SSW 3.2 km/h 11.3 km/h 90 % 0 mm
01:59 26.3 °C 24.5 °C 1008.4 hPa SSE 1.6 km/h 9.7 km/h 90 % 0 mm
02:04 26.3 °C 24.5 °C 1008.4 hPa SSE 1.6 km/h 9.7 km/h 90 % 0 mm
02:09 26.3 °C 24.5 °C 1008.4 hPa SE 3.2 km/h 9.7 km/h 90 % 0 mm
02:14 26.3 °C 24.5 °C 1008.4 hPa ESE 6.4 km/h 8 km/h 90 % 0 mm
02:19 26.3 °C 24.5 °C 1008.4 hPa SE 3.2 km/h 9.7 km/h 90 % 0 mm
02:24 26.3 °C 24.5 °C 1008 hPa SE 1.6 km/h 9.7 km/h 90 % 0 mm
02:29 26.2 °C 24.4 °C 1008 hPa SE 1.6 km/h 9.7 km/h 90 % 0 mm
02:34 26.2 °C 24.6 °C 1008 hPa SE 1.6 km/h 14.5 km/h 91 % 0 mm
02:39 26.2 °C 24.6 °C 1008.4 hPa SSE 4.8 km/h 14.5 km/h 91 % 0 mm
02:44 26.2 °C 24.6 °C 1008 hPa SSE 3.2 km/h 14.5 km/h 91 % 0 mm
02:49 26.2 °C 24.6 °C 1008 hPa SE 3.2 km/h 8 km/h 91 % 0 mm
02:54 26.2 °C 24.6 °C 1008.4 hPa SSE 6.4 km/h 6.4 km/h 91 % 0 mm
02:59 26.2 °C 24.6 °C 1008.4 hPa SSE 11.3 km/h 11.3 km/h 91 % 0 mm
03:04 26.2 °C 24.6 °C 1008 hPa South 11.3 km/h 11.3 km/h 91 % 0 mm
03:09 26.2 °C 24.6 °C 1008 hPa South 3.2 km/h 12.9 km/h 91 % 0 mm
03:14 26.2 °C 24.6 °C 1008 hPa South 6.4 km/h 12.9 km/h 91 % 0 mm
03:19 26.3 °C 24.7 °C 1008 hPa SE 4.8 km/h 12.9 km/h 91 % 0 mm
03:24 26.3 °C 24.7 °C 1008 hPa SSE 11.3 km/h 12.9 km/h 91 % 0 mm
03:29 26.3 °C 24.7 °C 1008 hPa SSE 4.8 km/h 12.9 km/h 91 % 0 mm
03:34 26.3 °C 24.7 °C 1008 hPa South 4.8 km/h 14.5 km/h 91 % 0 mm
03:40 26.3 °C 24.7 °C 1008 hPa SSE 6.4 km/h 14.5 km/h 91 % 0 mm
03:45 26.3 °C 24.7 °C 1008 hPa South 4.8 km/h 14.5 km/h 91 % 0 mm
03:50 26.3 °C 24.7 °C 1008 hPa SW 4.8 km/h 16.1 km/h 91 % 0 mm
03:55 26.2 °C 24.6 °C 1008 hPa South 3.2 km/h 16.1 km/h 91 % 0 mm
04:00 26.2 °C 24.8 °C 1008 hPa South 4.8 km/h 14.5 km/h 92 % 0 mm
04:05 26.2 °C 24.8 °C 1008 hPa SSE 6.4 km/h 14.5 km/h 92 % 0 mm
04:10 26.1 °C 24.7 °C 1008 hPa SSE 4.8 km/h 11.3 km/h 92 % 0 mm
04:15 26.1 °C 24.7 °C 1008 hPa SSW 4.8 km/h 11.3 km/h 92 % 0 mm
04:20 26.1 °C 24.7 °C 1008.4 hPa SE 4.8 km/h 11.3 km/h 92 % 0 mm
04:25 26.1 °C 24.7 °C 1008.4 hPa SW 4.8 km/h 9.7 km/h 92 % 0 mm
04:30 26.1 °C 24.7 °C 1008.4 hPa South 6.4 km/h 9.7 km/h 92 % 0 mm
04:35 26.1 °C 24.7 °C 1008.4 hPa SSW 3.2 km/h 9.7 km/h 92 % 0 mm
04:40 26.1 °C 24.7 °C 1008.4 hPa SSE 4.8 km/h 9.7 km/h 92 % 0 mm
04:45 26.1 °C 24.7 °C 1008.4 hPa South 9.7 km/h 11.3 km/h 92 % 0 mm
04:50 26.1 °C 24.7 °C 1008.4 hPa SSW 4.8 km/h 12.9 km/h 92 % 0 mm
04:55 26.1 °C 24.7 °C 1008.4 hPa South 6.4 km/h 12.9 km/h 92 % 0 mm
05:00 26.1 °C 24.7 °C 1008.4 hPa SSE 4.8 km/h 12.9 km/h 92 % 0 mm
05:05 26.1 °C 24.7 °C 1008.4 hPa SSE 3.2 km/h 11.3 km/h 92 % 0 mm
05:10 26.1 °C 24.9 °C 1008.4 hPa South 4.8 km/h 12.9 km/h 93 % 0 mm
05:15 26.1 °C 24.9 °C 1008.4 hPa SSE 8 km/h 14.5 km/h 93 % 0 mm
05:20 26.1 °C 24.9 °C 1008.4 hPa South 4.8 km/h 14.5 km/h 93 % 0 mm
05:25 26.1 °C 24.9 °C 1008.4 hPa South 8 km/h 14.5 km/h 93 % 0 mm
05:30 26.1 °C 24.9 °C 1008.4 hPa ESE 3.2 km/h 12.9 km/h 93 % 0 mm
05:35 26.1 °C 24.7 °C 1008.4 hPa South 4.8 km/h 14.5 km/h 92 % 0 mm
05:40 26.1 °C 24.7 °C 1008 hPa SE 3.2 km/h 14.5 km/h 92 % 0 mm
05:46 26.1 °C 24.7 °C 1008.4 hPa South 6.4 km/h 14.5 km/h 92 % 0 mm
05:51 26 °C 24.6 °C 1008 hPa SE 6.4 km/h 14.5 km/h 92 % 0 mm
05:56 25.9 °C 24.7 °C 1008.4 hPa South 6.4 km/h 12.9 km/h 93 % 0 mm
06:01 25.9 °C 24.7 °C 1008.4 hPa SSW 8 km/h 12.9 km/h 93 % 0 mm
06:06 25.9 °C 24.7 °C 1008.4 hPa SSE 4.8 km/h 12.9 km/h 93 % 0 mm
06:16 25.8 °C 24.6 °C 1008.4 hPa SSW 9.7 km/h 11.3 km/h 93 % 0 mm
06:21 25.8 °C 24.6 °C 1008.4 hPa SSE 6.4 km/h 12.9 km/h 93 % 0 mm
06:26 25.8 °C 24.6 °C 1008.4 hPa SSW 3.2 km/h 12.9 km/h 93 % 0 mm
06:31 25.7 °C 24.5 °C 1008.4 hPa SSE 6.4 km/h 12.9 km/h 93 % 0 mm
06:36 25.7 °C 24.5 °C 1008.4 hPa South 3.2 km/h 9.7 km/h 93 % 0 mm
06:41 25.7 °C 24.5 °C 1008.4 hPa SE 3.2 km/h 14.5 km/h 93 % 0 mm
06:46 25.7 °C 24.5 °C 1008.4 hPa SSE 6.4 km/h 14.5 km/h 93 % 0 mm
06:51 25.7 °C 24.5 °C 1008.4 hPa SSE 6.4 km/h 14.5 km/h 93 % 0 mm
06:56 25.7 °C 24.5 °C 1008.4 hPa SE 4.8 km/h 14.5 km/h 93 % 0 mm
06:57 25.7 °C 24.5 °C 1008.4 hPa SSE 9.7 km/h 14.5 km/h 93 % 0 mm
07:02 25.7 °C 24.5 °C 1008.4 hPa SE 8 km/h 14.5 km/h 93 % 0 mm
07:07 25.7 °C 24.5 °C 1008.4 hPa SE 6.4 km/h 14.5 km/h 93 % 0 mm
07:12 25.7 °C 24.3 °C 1008.4 hPa SE 3.2 km/h 14.5 km/h 92 % 0 mm
07:17 25.8 °C 24.4 °C 1008.7 hPa SE 9.7 km/h 16.1 km/h 92 % 0 mm
07:22 25.8 °C 24.4 °C 1008.7 hPa South 6.4 km/h 16.1 km/h 92 % 0 mm
07:27 25.9 °C 24.5 °C 1008.7 hPa SSE 9.7 km/h 16.1 km/h 92 % 0 mm
07:32 26.1 °C 24.7 °C 1008.7 hPa South 4.8 km/h 12.9 km/h 92 % 0 mm
07:37 26.2 °C 24.6 °C 1008.7 hPa SSW 8 km/h 12.9 km/h 91 % 0 mm
07:42 26.3 °C 24.7 °C 1008.7 hPa SSW 8 km/h 14.5 km/h 91 % 0 mm
07:47 26.4 °C 24.6 °C 1008.7 hPa SSE 6.4 km/h 14.5 km/h 90 % 0 mm
07:52 26.5 °C 24.7 °C 1008.7 hPa SSW 9.7 km/h 14.5 km/h 90 % 0 mm
07:57 26.7 °C 24.9 °C 1008.7 hPa South 6.4 km/h 14.5 km/h 90 % 0 mm
08:02 26.7 °C 24.7 °C 1008.7 hPa SSE 8 km/h 14.5 km/h 89 % 0 mm
08:07 26.9 °C 24.9 °C 1009 hPa SSW 4.8 km/h 16.1 km/h 89 % 0 mm
08:12 27.1 °C 25.1 °C 1009 hPa SSE 6.4 km/h 16.1 km/h 89 % 0 mm
08:17 27.3 °C 25.1 °C 1009 hPa SE 4.8 km/h 16.1 km/h 88 % 0 mm
08:22 27.6 °C 25.2 °C 1009 hPa SSE 6.4 km/h 14.5 km/h 87 % 0 mm
08:27 27.6 °C 24.8 °C 1009.4 hPa SE 11.3 km/h 17.7 km/h 85 % 0 mm
08:32 27.6 °C 24.8 °C 1009.4 hPa SE 6.4 km/h 17.7 km/h 85 % 0 mm
08:37 27.7 °C 24.9 °C 1009.4 hPa South 6.4 km/h 17.7 km/h 85 % 0 mm
08:42 27.8 °C 24.8 °C 1009.4 hPa SSE 8 km/h 17.7 km/h 84 % 0 mm
08:43 27.8 °C 24.8 °C 1009.4 hPa SE 8 km/h 17.7 km/h 84 % 0 mm
08:48 27.9 °C 24.9 °C 1009.4 hPa SE 6.4 km/h 17.7 km/h 84 % 0 mm
08:53 28 °C 25 °C 1009.4 hPa South 4.8 km/h 14.5 km/h 84 % 0 mm
08:58 28.1 °C 24.9 °C 1009.4 hPa SE 4.8 km/h 14.5 km/h 83 % 0 mm
09:03 28.1 °C 24.7 °C 1009.4 hPa SSE 9.7 km/h 14.5 km/h 82 % 0 mm
09:08 28.2 °C 24.8 °C 1009.4 hPa SSE 11.3 km/h 17.7 km/h 82 % 0 mm
09:13 28.2 °C 24.8 °C 1009.4 hPa South 9.7 km/h 19.3 km/h 82 % 0 mm
09:18 28.2 °C 24.6 °C 1009.4 hPa SE 11.3 km/h 22.5 km/h 81 % 0 mm
09:23 28.3 °C 24.7 °C 1009.4 hPa ESE 12.9 km/h 22.5 km/h 81 % 0 mm
09:28 28.5 °C 24.7 °C 1009.4 hPa SSE 11.3 km/h 22.5 km/h 80 % 0 mm
09:33 28.6 °C 24.8 °C 1009.4 hPa SSW 6.4 km/h 20.9 km/h 80 % 0 mm
09:38 28.6 °C 25 °C 1009.4 hPa SSE 4.8 km/h 19.3 km/h 81 % 0 mm
09:43 28.7 °C 25.1 °C 1009.4 hPa SSW 9.7 km/h 19.3 km/h 81 % 0 mm
09:48 28.9 °C 24.9 °C 1009.4 hPa SSE 14.5 km/h 16.1 km/h 79 % 0 mm
09:53 28.9 °C 24.7 °C 1009.4 hPa SSE 8 km/h 16.1 km/h 78 % 0 mm
09:58 28.9 °C 24.7 °C 1009.4 hPa SSE 9.7 km/h 20.9 km/h 78 % 0 mm
10:03 29.1 °C 24.9 °C 1009.4 hPa South 11.3 km/h 20.9 km/h 78 % 0 mm
10:08 29.2 °C 24.7 °C 1009.4 hPa SSW 3.2 km/h 20.9 km/h 77 % 0 mm
10:13 29.5 °C 25 °C 1009.4 hPa SSW 6.4 km/h 17.7 km/h 77 % 0 mm
10:18 29.9 °C 24.8 °C 1009.4 hPa SSE 12.9 km/h 17.7 km/h 74 % 0 mm
10:23 29.9 °C 24.8 °C 1009.4 hPa ENE 14.5 km/h 19.3 km/h 74 % 0 mm
10:28 30.1 °C 25 °C 1009.4 hPa SSE 11.3 km/h 19.3 km/h 74 % 0 mm
10:33 30.1 °C 24.5 °C 1009.4 hPa SSE 14.5 km/h 19.3 km/h 72 % 0 mm
10:38 30.2 °C 24.6 °C 1009.4 hPa SSE 14.5 km/h 25.7 km/h 72 % 0 mm
10:43 30.1 °C 24.5 °C 1009.4 hPa SSW 9.7 km/h 25.7 km/h 72 % 0 mm
10:48 30.1 °C 24.7 °C 1009.4 hPa SSE 14.5 km/h 25.7 km/h 73 % 0 mm
10:53 30.1 °C 24.5 °C 1009.4 hPa SSW 12.9 km/h 24.1 km/h 72 % 0 mm
10:58 30.3 °C 24.4 °C 1009.4 hPa SSE 20.9 km/h 22.5 km/h 71 % 0 mm
11:03 30.6 °C 24.7 °C 1009.4 hPa SW 4.8 km/h 22.5 km/h 71 % 0 mm
11:08 30.8 °C 24.7 °C 1009.4 hPa ESE 14.5 km/h 22.5 km/h 70 % 0 mm
11:10 30.9 °C 25.3 °C 1009.4 hPa SE 14.5 km/h 22.5 km/h 72 % 0 mm
11:15 31.1 °C 25 °C 1009.4 hPa SSE 9.7 km/h 22.5 km/h 70 % 0 mm
11:20 31.3 °C 25.2 °C 1009.4 hPa SSW 17.7 km/h 17.7 km/h 70 % 0 mm
11:25 31.4 °C 24.5 °C 1009.4 hPa SSW 6.4 km/h 17.7 km/h 67 % 0 mm
11:30 31.3 °C 24.7 °C 1009.4 hPa SW 1.6 km/h 17.7 km/h 68 % 0 mm
11:32 31.4 °C 25 °C 1009.4 hPa SSW 12.9 km/h 19.3 km/h 69 % 0 mm
11:37 31.8 °C 24.7 °C 1009.4 hPa SSE 9.7 km/h 19.3 km/h 66 % 0 mm
11:42 32.1 °C 24.9 °C 1009.4 hPa SSW 8 km/h 19.3 km/h 66 % 0 mm
11:47 32.2 °C 25 °C 1009.4 hPa SSW 6.4 km/h 20.9 km/h 66 % 0 mm
11:52 32.5 °C 25.1 °C 1009 hPa WSW 9.7 km/h 20.9 km/h 65 % 0 mm
11:57 32.7 °C 25 °C 1009.4 hPa South 9.7 km/h 20.9 km/h 64 % 0 mm
12:02 32.7 °C 24.7 °C 1009 hPa SSW 12.9 km/h 19.3 km/h 63 % 0 mm
12:08 32.7 °C 24.5 °C 1009 hPa SE 16.1 km/h 19.3 km/h 62 % 0 mm
12:13 32.6 °C 24.9 °C 1009 hPa SSE 16.1 km/h 20.9 km/h 64 % 0 mm
12:18 32.7 °C 25.3 °C 1008.7 hPa SSW 12.9 km/h 20.9 km/h 65 % 0 mm
12:22 32.7 °C 24.5 °C 1009 hPa SSE 11.3 km/h 20.9 km/h 62 % 0 mm
12:28 32.8 °C 24.8 °C 1008.7 hPa South 12.9 km/h 20.9 km/h 63 % 0 mm
12:33 32.9 °C 25.2 °C 1008.7 hPa SSW 4.8 km/h 22.5 km/h 64 % 0 mm
12:38 32.9 °C 24.4 °C 1008.7 hPa SSE 8 km/h 22.5 km/h 61 % 0 mm
12:43 33.3 °C 24.8 °C 1008.7 hPa SSW 14.5 km/h 22.5 km/h 61 % 0 mm
12:48 33.3 °C 24.8 °C 1008.7 hPa SE 9.7 km/h 19.3 km/h 61 % 0 mm
12:53 33.1 °C 24.6 °C 1008.7 hPa SE 6.4 km/h 20.9 km/h 61 % 0 mm
12:58 33.1 °C 24.3 °C 1008.4 hPa SSE 8 km/h 20.9 km/h 60 % 0 mm
13:03 32.9 °C 24.6 °C 1008.7 hPa South 4.8 km/h 20.9 km/h 62 % 0 mm
13:08 33.3 °C 24.2 °C 1008.7 hPa SSE 9.7 km/h 17.7 km/h 59 % 0 mm
13:13 33.2 °C 24.7 °C 1008.7 hPa SW 9.7 km/h 19.3 km/h 61 % 0 mm
13:18 33.1 °C 24.3 °C 1008.7 hPa SSE 9.7 km/h 24.1 km/h 60 % 0 mm
13:23 33.1 °C 24.8 °C 1008.7 hPa ESE 9.7 km/h 24.1 km/h 62 % 0 mm
13:28 33.2 °C 24.1 °C 1008.4 hPa SSW 8 km/h 24.1 km/h 59 % 0 mm
13:33 33.4 °C 24.3 °C 1008.4 hPa SSE 16.1 km/h 19.3 km/h 59 % 0 mm
13:38 33.2 °C 24.7 °C 1008.4 hPa SSE 6.4 km/h 19.3 km/h 61 % 0 mm
13:43 33.6 °C 24.2 °C 1008.4 hPa SSE 9.7 km/h 17.7 km/h 58 % 0 mm
13:48 33.8 °C 24.4 °C 1008.4 hPa SE 11.3 km/h 17.7 km/h 58 % 0 mm
13:53 33.9 °C 24.8 °C 1008.4 hPa SSE 14.5 km/h 17.7 km/h 59 % 0 mm
13:58 33.6 °C 24.8 °C 1008.4 hPa SSW 4.8 km/h 17.7 km/h 60 % 0 mm
14:03 33.7 °C 25.1 °C 1008.4 hPa NNW 3.2 km/h 17.7 km/h 61 % 0 mm
14:06 33.7 °C 24.6 °C 1008.4 hPa SSW 8 km/h 20.9 km/h 59 % 0 mm
14:12 33.7 °C 24.9 °C 1008.4 hPa SSW 8 km/h 20.9 km/h 60 % 0 mm
14:17 33.8 °C 24.4 °C 1008.4 hPa SSE 4.8 km/h 20.9 km/h 58 % 0 mm
14:22 33.7 °C 24.9 °C 1008.4 hPa South 16.1 km/h 16.1 km/h 60 % 0 mm
14:27 33.4 °C 24.6 °C 1008.4 hPa ESE 9.7 km/h 20.9 km/h 60 % 0 mm
14:32 33.4 °C 24.3 °C 1008.4 hPa South 8 km/h 20.9 km/h 59 % 0 mm
14:37 33.6 °C 24.5 °C 1008 hPa SSE 4.8 km/h 20.9 km/h 59 % 0 mm
14:42 33.8 °C 24.9 °C 1008 hPa SW 3.2 km/h 14.5 km/h 60 % 0 mm
14:47 33.8 °C 25.2 °C 1008 hPa SSE 4.8 km/h 14.5 km/h 61 % 0 mm
14:52 33.7 °C 24.6 °C 1008 hPa SSW 9.7 km/h 14.5 km/h 59 % 0 mm
14:57 33.6 °C 24.5 °C 1008 hPa SSE 9.7 km/h 14.5 km/h 59 % 0 mm
15:02 33.6 °C 24.8 °C 1008 hPa SSE 8 km/h 16.1 km/h 60 % 0 mm
15:07 33.9 °C 24.8 °C 1007.7 hPa South 3.2 km/h 16.1 km/h 59 % 0 mm
15:12 34 °C 24.6 °C 1007.7 hPa SE 4.8 km/h 16.1 km/h 58 % 0 mm
15:17 34.1 °C 25.5 °C 1007.7 hPa South 3.2 km/h 16.1 km/h 61 % 0 mm
15:22 34.3 °C 25.4 °C 1007.7 hPa SW 6.4 km/h 16.1 km/h 60 % 0 mm
15:27 34.1 °C 24.7 °C 1007.7 hPa SE 12.9 km/h 16.1 km/h 58 % 0 mm
15:32 33.9 °C 24.8 °C 1007.7 hPa SW 4.8 km/h 19.3 km/h 59 % 0 mm
15:37 33.9 °C 24.5 °C 1007.7 hPa SSW 8 km/h 19.3 km/h 58 % 0 mm
15:42 33.9 °C 24.5 °C 1007.3 hPa South 9.7 km/h 19.3 km/h 58 % 0 mm
15:47 33.8 °C 24.4 °C 1007.3 hPa SSE 11.3 km/h 17.7 km/h 58 % 0 mm
15:52 33.8 °C 24.7 °C 1007.3 hPa SE 8 km/h 17.7 km/h 59 % 0 mm
15:57 33.8 °C 24.9 °C 1007.3 hPa South 6.4 km/h 17.7 km/h 60 % 0 mm
16:02 34.2 °C 25 °C 1007 hPa South 14.5 km/h 17.7 km/h 59 % 0 mm
16:07 34.4 °C 25.2 °C 1007 hPa ESE 12.9 km/h 14.5 km/h 59 % 0 mm
16:12 34.3 °C 25.1 °C 1007 hPa SE 12.9 km/h 20.9 km/h 59 % 0 mm
16:17 34 °C 24.8 °C 1006.7 hPa South 8 km/h 20.9 km/h 59 % 0 mm
16:22 33.8 °C 24.9 °C 1006.7 hPa SE 9.7 km/h 20.9 km/h 60 % 0 mm
16:27 33.8 °C 25.2 °C 1006.7 hPa SSE 16.1 km/h 19.3 km/h 61 % 0 mm
16:32 33.9 °C 25 °C 1006.7 hPa SSE 11.3 km/h 19.3 km/h 60 % 0 mm
16:37 34.1 °C 25.2 °C 1006.7 hPa ESE 11.3 km/h 19.3 km/h 60 % 0 mm
16:42 34.2 °C 25 °C 1006.3 hPa South 3.2 km/h 19.3 km/h 59 % 0 mm
16:47 34.1 °C 24.9 °C 1006.3 hPa South 11.3 km/h 17.7 km/h 59 % 0 mm
16:52 34.2 °C 25 °C 1006.3 hPa SSW 6.4 km/h 17.7 km/h 59 % 0 mm
16:57 34.2 °C 25 °C 1006.3 hPa South 6.4 km/h 19.3 km/h 59 % 0 mm
17:02 34.4 °C 24.6 °C 1006 hPa SE 8 km/h 19.3 km/h 57 % 0 mm
17:07 34.1 °C 24.7 °C 1006 hPa SSW 11.3 km/h 22.5 km/h 58 % 0 mm
17:12 33.9 °C 24.8 °C 1006 hPa SSW 9.7 km/h 22.5 km/h 59 % 0 mm
17:17 33.7 °C 24.6 °C 1006 hPa SE 17.7 km/h 22.5 km/h 59 % 0 mm
17:22 33.7 °C 24.6 °C 1006 hPa South 6.4 km/h 22.5 km/h 59 % 0 mm
17:27 33.7 °C 24.9 °C 1006 hPa SE 9.7 km/h 22.5 km/h 60 % 0 mm
17:32 33.3 °C 24.5 °C 1006 hPa SSE 11.3 km/h 22.5 km/h 60 % 0 mm
17:37 33.2 °C 24.4 °C 1006 hPa SSE 4.8 km/h 20.9 km/h 60 % 0 mm
17:42 33.1 °C 24.6 °C 1006 hPa SSW 4.8 km/h 20.9 km/h 61 % 0 mm
17:47 33.2 °C 24.7 °C 1006 hPa SSW 12.9 km/h 17.7 km/h 61 % 0 mm
17:52 33.4 °C 24.8 °C 1006.3 hPa South 6.4 km/h 16.1 km/h 61 % 0 mm
17:57 33.4 °C 24.6 °C 1006.3 hPa SE 8 km/h 16.1 km/h 60 % 0 mm
18:02 33.3 °C 24.8 °C 1006.3 hPa South 11.3 km/h 17.7 km/h 61 % 0 mm
18:07 33.3 °C 24.5 °C 1006.3 hPa SE 6.4 km/h 17.7 km/h 60 % 0 mm
18:12 33.1 °C 24.6 °C 1006.3 hPa SW 3.2 km/h 17.7 km/h 61 % 0 mm
18:17 32.8 °C 24.3 °C 1006 hPa SW 8 km/h 17.7 km/h 61 % 0 mm
18:22 32.7 °C 24.5 °C 1006.3 hPa South 11.3 km/h 17.7 km/h 62 % 0 mm
18:27 32.8 °C 24.3 °C 1006.3 hPa ESE 11.3 km/h 17.7 km/h 61 % 0 mm
18:32 32.8 °C 24.6 °C 1006.3 hPa SSW 4.8 km/h 16.1 km/h 62 % 0 mm
18:37 32.9 °C 24.6 °C 1006.3 hPa SW 3.2 km/h 16.1 km/h 62 % 0 mm
18:42 33.1 °C 24.6 °C 1006.3 hPa South 8 km/h 16.1 km/h 61 % 0 mm
18:47 32.8 °C 24.3 °C 1006.3 hPa SSW 6.4 km/h 14.5 km/h 61 % 0 mm
18:48 32.8 °C 24.3 °C 1006.3 hPa SSW 6.4 km/h 14.5 km/h 61 % 0 mm
18:53 32.7 °C 24.5 °C 1006.3 hPa ENE 9.7 km/h 16.1 km/h 62 % 0 mm
18:58 32.7 °C 24.5 °C 1006.7 hPa SSE 6.4 km/h 16.1 km/h 62 % 0 mm
19:03 32.6 °C 24.6 °C 1006.7 hPa SSE 6.4 km/h 16.1 km/h 63 % 0 mm
19:08 32.5 °C 24.5 °C 1006.3 hPa SSE 6.4 km/h 14.5 km/h 63 % 0 mm
19:13 32.4 °C 24.4 °C 1006.7 hPa SSW 6.4 km/h 14.5 km/h 63 % 0 mm
19:18 32.5 °C 24.5 °C 1006.7 hPa SSW 4.8 km/h 14.5 km/h 63 % 0 mm
19:23 32.4 °C 24.7 °C 1006.7 hPa SSW 9.7 km/h 11.3 km/h 64 % 0 mm
19:28 32.3 °C 24.9 °C 1006.7 hPa SSW 8 km/h 14.5 km/h 65 % 0 mm
19:33 32.1 °C 24.7 °C 1006.7 hPa South 11.3 km/h 17.7 km/h 65 % 0 mm
19:38 31.8 °C 24.7 °C 1006.7 hPa SE 19.3 km/h 19.3 km/h 66 % 0 mm
19:43 31.7 °C 24.8 °C 1006.7 hPa SSW 4.8 km/h 19.3 km/h 67 % 0 mm
19:48 31.6 °C 24.7 °C 1006.7 hPa ESE 17.7 km/h 19.3 km/h 67 % 0 mm
19:53 31.3 °C 24.4 °C 1006.7 hPa SSW 9.7 km/h 24.1 km/h 67 % 0 mm
19:58 31.2 °C 24.3 °C 1006.7 hPa SSE 8 km/h 24.1 km/h 67 % 0 mm
20:03 31.1 °C 24.2 °C 1006.7 hPa SE 11.3 km/h 24.1 km/h 67 % 0 mm
20:08 30.9 °C 24.1 °C 1006.7 hPa SSW 9.7 km/h 20.9 km/h 67 % 0 mm
20:13 30.8 °C 24 °C 1006.7 hPa SE 4.8 km/h 19.3 km/h 67 % 0 mm
20:18 30.7 °C 24.1 °C 1006.7 hPa SSE 9.7 km/h 17.7 km/h 68 % 0 mm
20:23 30.7 °C 24.1 °C 1006.7 hPa South 6.4 km/h 16.1 km/h 68 % 0 mm
20:28 30.5 °C 24.2 °C 1006.7 hPa SSW 11.3 km/h 16.1 km/h 69 % 0 mm
20:33 30.4 °C 24.1 °C 1006.7 hPa SSW 16.1 km/h 19.3 km/h 69 % 0 mm
20:38 30.4 °C 24.3 °C 1006.7 hPa ESE 9.7 km/h 19.3 km/h 70 % 0 mm
20:43 30.3 °C 24.2 °C 1006.7 hPa SE 8 km/h 19.3 km/h 70 % 0 mm
20:48 30.2 °C 24.4 °C 1006.7 hPa ESE 8 km/h 17.7 km/h 71 % 0 mm
20:53 30.1 °C 24.3 °C 1006.7 hPa SSE 6.4 km/h 17.7 km/h 71 % 0 mm
20:58 29.9 °C 24.3 °C 1006.7 hPa SE 8 km/h 16.1 km/h 72 % 0 mm
21:03 29.8 °C 24.7 °C 1006.3 hPa SE 3.2 km/h 16.1 km/h 74 % 0 mm
21:08 29.7 °C 24.6 °C 1006.7 hPa SW 9.7 km/h 16.1 km/h 74 % 0 mm
21:13 29.6 °C 24.7 °C 1006.7 hPa SSE 4.8 km/h 20.9 km/h 75 % 0 mm
21:18 29.4 °C 24.3 °C 1006.7 hPa SE 11.3 km/h 20.9 km/h 74 % 0 mm
21:23 29.4 °C 24.3 °C 1006.7 hPa SSW 8 km/h 20.9 km/h 74 % 0 mm
21:28 29.3 °C 24.2 °C 1007 hPa SSE 4.8 km/h 19.3 km/h 74 % 0 mm
21:33 29.2 °C 24.3 °C 1007 hPa SSW 9.7 km/h 22.5 km/h 75 % 0 mm
21:34 29.2 °C 24.3 °C 1007 hPa SSE 9.7 km/h 22.5 km/h 75 % 0 mm
21:39 29.1 °C 24.2 °C 1007 hPa SSE 8 km/h 22.5 km/h 75 % 0 mm
21:44 29.1 °C 24.4 °C 1007 hPa SW 4.8 km/h 22.5 km/h 76 % 0 mm
21:49 28.9 °C 24.2 °C 1007 hPa South 6.4 km/h 16.1 km/h 76 % 0 mm
21:54 28.8 °C 24.4 °C 1007 hPa South 8 km/h 16.1 km/h 77 % 0 mm
21:59 28.7 °C 24.3 °C 1007 hPa SE 8 km/h 17.7 km/h 77 % 0 mm
22:04 28.7 °C 24.3 °C 1007 hPa SSE 6.4 km/h 17.7 km/h 77 % 0 mm
22:09 28.7 °C 24.5 °C 1007.3 hPa SSE 9.7 km/h 17.7 km/h 78 % 0 mm
22:14 28.7 °C 24.5 °C 1007.3 hPa SE 4.8 km/h 24.1 km/h 78 % 0 mm
22:19 28.6 °C 24.4 °C 1007.3 hPa South 4.8 km/h 24.1 km/h 78 % 0 mm
22:24 28.5 °C 24.5 °C 1007.3 hPa SSE 4.8 km/h 24.1 km/h 79 % 0 mm
22:29 28.4 °C 24.4 °C 1007.3 hPa SSE 11.3 km/h 16.1 km/h 79 % 0 mm
22:34 28.4 °C 24.6 °C 1007.7 hPa South 11.3 km/h 16.1 km/h 80 % 0 mm
22:39 28.3 °C 24.5 °C 1007.3 hPa SSW 8 km/h 14.5 km/h 80 % 0 mm
22:44 28.3 °C 24.5 °C 1007.3 hPa SSW 4.8 km/h 19.3 km/h 80 % 0 mm
22:49 28.2 °C 24.6 °C 1007 hPa SSE 6.4 km/h 19.3 km/h 81 % 0 mm
22:54 28.1 °C 24.5 °C 1007 hPa South 8 km/h 19.3 km/h 81 % 0 mm
22:58 28.1 °C 24.5 °C 1007 hPa South 14.5 km/h 20.9 km/h 81 % 0 mm
23:03 28.1 °C 24.5 °C 1007 hPa South 9.7 km/h 20.9 km/h 81 % 0 mm
23:08 28 °C 24.6 °C 1007 hPa SW 9.7 km/h 20.9 km/h 82 % 0 mm
23:13 27.9 °C 24.7 °C 1007 hPa SSE 8 km/h 20.9 km/h 83 % 0 mm
23:18 27.9 °C 24.7 °C 1007 hPa SSW 16.1 km/h 20.9 km/h 83 % 0 mm
23:19 27.9 °C 24.7 °C 1007 hPa SW 17.7 km/h 20.9 km/h 83 % 0 mm
23:24 27.9 °C 24.7 °C 1007 hPa SSE 16.1 km/h 20.9 km/h 83 % 0 mm
23:30 27.8 °C 24.6 °C 1007 hPa SE 11.3 km/h 20.9 km/h 83 % 0 mm
23:35 27.8 °C 24.6 °C 1006.7 hPa South 11.3 km/h 20.9 km/h 83 % 0 mm
23:40 27.7 °C 24.7 °C 1006.7 hPa SSW 11.3 km/h 19.3 km/h 84 % 0 mm
23:45 27.7 °C 24.7 °C 1006.7 hPa SE 16.1 km/h 19.3 km/h 84 % 0 mm
23:50 27.6 °C 24.6 °C 1006.3 hPa SSE 12.9 km/h 20.9 km/h 84 % 0 mm
23:55 27.6 °C 24.6 °C 1006 hPa SW 14.5 km/h 20.9 km/h 84 % 0 mm
Spring, Texas: Villages of Bridgestone
Compliments of Weather Underground - 2.75 mb

Script developed by  Jim McMurry - jmcmurry@mwt.net Adapted for the template by  Wim van der Kuil - Leuven-Template.eu

You find our weather info also at:

UK Metoffice

WeatherCloud

Weather Underground

Mid-South Weather Network

AWEKAS

Citizen Weather Observer Program (CWOP)

HAMweather, WeatherForYou, PWS Weather

Equipment we use:

Weather-station
Davis Vantage Vue

Weather-program
Meteohub

Weather-server
Debian 7.9 x86 (Guest)

Provider
DreamHost

Davis Vantage Vue

Meteohub

Debian 7.9 x86 (Guest)

DreamHost